Regional Weather Roundup
Issued by NWS Wakefield, VA

Home | Current Version | Previous Version | Graphics & Text | Print | Product List | Glossary On
Versions: 1 2 3 4 5 6 7 8 9 10 11 12 13 14 15 16 17 18 19 20 21 22 23 24 25 26 27 28 29 30 31 32 33 34 35 36 37 38 39 40 41 42 43 44 45 46 47 48 49 50
501
ASUS41 KAKQ 260215
RWRAKQ

REGIONAL WEATHER ROUNDUP
NATIONAL WEATHER SERVICE WAKEFIELD VA
1000 PM EDT SAT MAR 25 2017

Note: "fair" indicates few or no clouds below 12,000 feet with no
significant weather and/or obstructions to visibility. * = Denotes
station may not report precipitation (e.g., rain,snow,etc.),
thunder or fog.

VAZ042-051-052>054-056-260300-
NORTHERN VIRGINIA

CITY           SKY/WX    TMP DP  RH WIND       PRES   REMARKS
WASH NATIONAL  CLOUDY    67  52  58 S8        30.18R
DULLES         CLOUDY    69  50  50 SE7       30.17S
FORT BELVOIR   CLOUDY    67  51  56 CALM      30.17S
QUANTICO       CLOUDY    62  51  67 S8        30.19R
FREDERICKSBRG* MOCLDY    69  53  56 S7        30.18R
STAFFORD*      CLOUDY    70  51  50 S5        30.22R
WARRENTON      CLOUDY    71  47  43 S5        30.17S
CULPEPER*      CLOUDY    68  54  59 S3        30.19R
MANASSAS*        N/A     68  53  58 S5        30.18R
LEESBURG*      CLOUDY    70  55  60 E5        30.18S
WINCHESTER     CLOUDY    61  50  67 CALM      30.17S
FRONT ROYAL*   CLOUDY    66  52  59 CALM      30.16S
LURAY*         PTCLDY    63  54  72 S3        30.17S
$$

VAZ048-049-060>072-079>083-260300-
CENTRAL AND SOUTH CENTRAL VIRGINIA

CITY           SKY/WX    TMP DP  RH WIND       PRES   REMARKS
RICHMOND       CLOUDY    65  52  62 S6        30.21R
CHESTERFIELD*  FAIR      63  39  42 S3        30.22R
PETERSBURG*    CLOUDY    55  51  86 CALM      30.22R
HANOVER        CLOUDY    67  49  52 S6        30.22R
TAPPAHANNOCK*  CLOUDY    68  38  34 S5        30.21R
QUINTON*       FAIR      65  53  64 CALM      30.21R
CHARLOTTSVILLE CLOUDY    67  50  54 S7        30.18R
GORDONSVILLE*  CLOUDY    67  52  57 SW6       30.18R
ORANGE*        CLOUDY    68  50  52 S5        30.20R
LOUISA*        CLOUDY    72  54  53 S3        30.19R
BUMPASS*       FAIR      67  51  57 S8        30.19S
FARMVILLE*     PTCLDY    65  52  63 S3        30.19R
CREWE*         FAIR      61  52  71 S3        30.20S
FORT PICKETT*  FAIR      61  46  57 SE7       30.21S
CHASE CITY*    FAIR      60  50  68 CALM      30.21S
CLARKSVILLE*   FAIR      61  50  67 CALM      30.21S
SOUTH HILL*    CLOUDY    59  53  79 S3        30.27S
LAWRENCEVILLE* FAIR      62  51  66 CALM      30.21S
EMPORIA*       PTCLDY    61  50  67 CALM      30.23S
$$

VAZ088>098-260300-
SOUTHEAST VIRGINIA

CITY           SKY/WX    TMP DP  RH WIND       PRES   REMARKS
NORFOLK        MOCLDY    67  51  56 S8        30.22S
VIRGINIA BEACH CLOUDY    65  50  58 S7        30.23R
NORFOLK NAVAL  CLOUDY    64  50  60 S6        30.24R
WEST POINT*    CLOUDY    65  50  58 S3        30.23R
SALUDA*        FAIR      67  53  60 S5        30.21R
NEWPORT NEWS   CLOUDY    60  52  74 CALM      30.22S
LANGLEY AFB    CLOUDY    65  52  63 S3        30.22R
FORT EUSTIS    CLOUDY    62  51  67 CALM      30.20R
WILLIAMSBURG*  CLOUDY    64  54  68 CALM      30.23R
HR EXEC AP*    FAIR      55  48  76 CALM      30.22R
FRANKLIN*      CLOUDY    59  51  73 CALM      30.23S
US460-WAKEFLD  CLOUDY    59  53  80 CALM      30.22S
$$

VAZ020-022-025-037-045-260300-
WEST CENTRAL AND SOUTHWEST VIRGINIA

CITY           SKY/WX    TMP DP  RH WIND       PRES   REMARKS
STAUNTON*      CLOUDY    63  49  59 S3        30.20S
WAYNESBORO*    CLOUDY    62  50  64 CALM      30.19S
HOT SPRINGS VA PTCLDY    55  43  62 S9G18     30.24F
LYNCHBURG      CLOUDY    59  49  69 S3        30.21S
DANVILLE       MOCLDY    58  50  75 CALM      30.21R
SOUTH BOSTON*  FAIR      63  48  58 CALM      30.21R
MARTINSVILLE   MOCLDY    54  46  75 CALM      30.23S
ROANOKE        CLOUDY    65  48  54 S6        30.21R
BLACKSBURG     PTCLDY    59  48  66 SE3       30.25S
DUBLIN*        CLEAR     60  47  63 S3        30.22S
MARION*        CLEAR     60  46  61 SE3       30.23R
HILLSVILLE*    PTCLDY    57  47  70 CALM      30.22S
RICHLANDS*     FAIR      61  46  59 SE8       30.18R
WISE*          CLEAR     63  43  48 S3        30.17R
ABINGDON*      PTCLDY    63  46  53 SW3       30.18R
$$

MDZ021>025-VAZ099-100-260300-
SOUTHERN MARYLAND AND THE DELMARVA PENINSULA

CITY           SKY/WX    TMP DP  RH WIND       PRES   REMARKS
PATUXENT RIVER MOCLDY    53  51  93 CALM      30.19S
BAY BRIDGE APT CLOUDY    59  48  67 E14       30.22R
LEONARDTOWN    PTCLDY    63  50  63 CALM      30.20F
DOVER          CLOUDY    50  47  90 NE10      30.27R
GEORGETOWN     PTCLDY    49  44  83 E12       30.27R
EASTON         MOCLDY    59  46  63 E13       30.26R
CAMBRIDGE      CLOUDY    63  54  72 NE9       30.22R
SALISBURY      CLOUDY    62  53  72 NE12      30.22R
OCEAN CITY     PTCLDY    53  47  79 N9        30.24R
WALLOPS ISLAND PTCLDY    53  49  86 S7        30.23S
ACCOMACK*      CLOUDY    61  51  70 S6        30.22S
$$

NCZ012>017-030>032-260300-
NORTH CENTRAL AND EASTERN NORTH CAROLINA

CITY           SKY/WX    TMP DP  RH WIND       PRES   REMARKS
ROANOKE RAPIDS FAIR      64  50  59 S6        30.23S
RALEIGH        CLOUDY    65  48  54 S5        30.23R
ELIZABETH CITY PTCLDY    63  51  65 S9        30.25R
AHOSKIE*         N/A     62  51  66 S6        30.24S
EDENTON*       PTCLDY    63  53  70 S8        30.26S
CURRITUCK*     PTCLDY    65  51  60 S6        30.25S
KILL DEVIL HLS NOT AVBL
MANTEO         PTCLDY    57  52  83 SW5       30.27S
CAPE HATTERAS  MOCLDY    64  56  75 W7        30.28S
TARBORO*       NOT AVBL
GOLDSBORO      MOCLDY    65  54  66 S3        30.24R
WASHINGTON     CLOUDY    63  53  69 CALM      30.27S
GREENVILLE     PTCLDY    64  54  68 S8        30.27R
NEW BERN       CLOUDY    62  55  77 S7        30.28S
WILMINGTON     PTCLDY    62  56  80 S5        30.27S
$$

VAZ048-260300-
ELSEWHERE

CITY           SKY/WX    TMP DP  RH WIND       PRES   REMARKS
HARRISBURG PA  MOCLDY    56  44  64 E12       30.25R
BALTIMORE      CLOUDY    65  53  65 E23G30    30.21R
ANNAPOLIS      CLOUDY    62  50  64 E16       30.22R
ANDREWS AFB    CLOUDY    67  51  56 SE8       30.17S
PHILADELPHIA   MOCLDY    47  40  76 E12       30.32R
HENDERSON NC   CLOUDY    60  47  62 S5        30.22S
GREENSBORO     CLOUDY    62  49  62 S6        30.20S
ROCKY MOUNT    MOCLDY    64  53  67 S6        30.24R
$$

VAZ100-260300-
MARINE

STATION/POSITION TIME  TEMP    WIND        PRES    WAVE   SWELL
                       AIR SEA DIR/SP/G            HT/PER HT/PER
                 (UTC) (F)     (DEG/KT/KT) (MB)    (FT/S) (FT/S)
CAPE MAY NJ      0136   47 45   80/ 16/ 24 1024.4R
LEWES DE         0136      47   90/ 20/ 24 1024.4R
OCEAN-CITY-INLET 0136   52 44  350/  7/  9 1024.3R
WACHAPREAGUE VA  0136   57 56  220/  5/  6 1023.1S
THOMAS POINT MD  0100   59 45  190/  9/  9   N/A
GOOSES REEF MD   0200   51 46  180/  6/  6 1022.9    0
COVE POINT MD    0136   55     180/  8/  9 1023.1S
SOLOMONS ISLAND  0136   54 48   90/  4/  5   N/A
BISHOPS HEAD MD  0136   52 53  180/  5/  5 1023.0R
PINEY POINT MD   0142          140/  4/  4   N/A
POTOMAC MD       0200   52 47  160/  6/  6 1021.8    0
CAMBRIDGE MD     0136   66 46  180/  5/  7 1021.9R
LEWISETTA VA     0136   69 50  240/  5/  6 1022.2R
RAPPAHANNOCK LGT 0142          180/ 14/ 14 1023.8R
STINGRAY PT      0150   55     190/  8/  8 1022.8R
YORK RVR RNG VA  0136   65     200/  8/  8 1022.7R
YORKTOWN VA      0136   67 50  190/  3/  4 1023.0R
JAMESTOWN VA     0200   63 52   90/  2/  2   N/A     0
DOMINION TERM VA 0136   63     160/  4/  5 1023.5R
KIPTOPEKE VA     0142      49  160/  8/  9   N/A
CHES BAY BRIDGE  0142   63 48  170/  8/ 10 1023.6R
CAPE HENRY VA    0142   67     180/  8/ 11   N/A
WILLOUBY STN VA  0142   69     180/  6/  6 1024.4R
S CRANEY ISL VA  0142   64     200/  3/  4 1023.3R
CAPE HENRY BUOY  0142      49                N/A     2/11
CAPE CHARLES BUO 0151      48                N/A     2/10
OFFSHORE WE BUOY 0151      49                N/A     2/ 4
64NM E OF VA BCH 0150   54 49  210/ 12/ 12 1024.6R   3/ 4   2/ 5
DUCK PIER NC     0142   62 48  200/ 11/ 14 1024.1R
44100 DUCK FRF   0105      50                N/A     2/11
44056 DUCK FRF   0130      50                N/A     1/ 9
OREGON INLET NC  0142   58 59  200/  9/ 11 1025.0S
HATTERAS NC      0142   63 58  230/  6/  8 1025.2R
DIAMOND SHLS NC  0150   70 76  190/ 16/ 19 1025.3R   4/ 5   2/ 7
CAPE LOOKOUT NC  0100   67     210/  7/  9 1025.0S
$$




USA.gov is the U.S. government's official web portal to all federal, state and local government web resources and services.